Tracking 30970 objects as of 3-Jul-2025
HD Live streaming from Space Station
objects crossing your sky now

SL-3 R/B

Track SL-3 R/B now!
10-day predictions


NORAD ID: 11608
Int'l Code: 1979-095B
Perigee: 839.4 km
Apogee: 917.7 km
Inclination: 81.2 °
Period: 102.4 minutes
Semi major axis: 7249 km
RCS: 6.4022 m2 (large)
Launch date: October 31, 1979
Source: Commonwealth of Independent States (former USSR) (CIS)
Launch site: PLESETSK MISSILE AND SPACE COMPLEX (PKMTR)

Note: This is a ROCKET BODY
Your satellite tracking list
COSMOS 2368
Track 1 satellite(s)




NASA's NSSDC Master Catalog

Two Line Element Set (TLE):
1 11608U 79095B   25183.89684009  .00000091  00000-0  46853-4 0  9999
2 11608  81.2118 239.6530 0054013 188.0639 171.9668 14.06500707342710
Source of the keplerian elements: AFSPC